Wilmington, NC

3:30 AM EDT on March 26, 2017 (GMT -0400)
Wilmington International

Weather History for KILM - October, 2012

Change the Weather History Date:

Monday, October 29, 2012

  Actual Average Record
Temperature  
Mean Temperature 54 °F 61 °F  
Max Temperature 58 °F 73 °F 82 °F (1984)
Min Temperature 49 °F 50 °F 30 °F (1976)
Degree Days  
Heating Degree Days 11 5  
Month to date heating degree days 62 81  
Since 1 July heating degree days 62 86  
Cooling Degree Days 0 2  
Month to date cooling degree days 94 95  
Year to date cooling degree days 2169 2012  
Growing Degree Days 4 (Base 50)    
Moisture  
Dew Point 42 °F    
Average Humidity 66    
Maximum Humidity 77    
Minimum Humidity 54    
Precipitation  
Precipitation 0.00 in 0.09 in 2.76 in (1880)
Month to date precipitation 4.39 3.70  
Year to date precipitation 41.43 50.51  
Sea Level Pressure  
Sea Level Pressure 29.46 in    
Wind  
Wind Speed 18 mph (WNW)    
Max Wind Speed 28 mph    
Max Gust Speed 37 mph    
Visibility 10 miles    
Events      
T = Trace of Precipitation, MM = Missing Value Source: NWS Daily Summary

Daily Weather History Graph

Daily Weather History Graph

Search for Another Location

Airport or City:

Trip Planner

Search our weather history database for the weather conditions in past years. The results will help you decide how hot, cold, wet, or windy it might be!

Date:

Astronomy

Oct. 29, 2012 Rise Set
Actual Time 7:29 AM EDT 6:20 PM EDT
Civil Twilight 7:03 AM EDT 6:46 PM EDT
Nautical Twilight 6:33 AM EDT 7:16 PM EDT
Astronomical Twilight 6:04 AM EDT 7:45 PM EDT
Moon 6:13 PM EDT (10/29) 7:16 AM EDT (10/29)
Length of Visible Light 11h 43m
Length of Day
10h 51m
Full, 100% of the Moon is Illuminated
Oct 29
Full
Oct 29
Full
Nov 6
Last Quarter
Nov 13
New
Nov 20
First Quarter

Hourly Weather History & Observations

Time (EDT) Temp. Dew Point Humidity Pressure Visibility Wind Dir Wind Speed Gust Speed Precip Events Conditions
12:03 AM 57.2 °F 51.8 °F 82% 29.51 in 10.0 mi NW 26.5 mph 32.2 mph N/A   Overcast
12:53 AM 57.9 °F 50.0 °F 75% 29.51 in 10.0 mi NW 17.3 mph 27.6 mph N/A   Overcast
1:53 AM 57.9 °F 50.0 °F 75% 29.50 in 10.0 mi NNW 17.3 mph 25.3 mph N/A   Overcast
2:53 AM 57.9 °F 50.0 °F 75% 29.49 in 10.0 mi NW 16.1 mph 20.7 mph N/A   Overcast
3:53 AM 57.0 °F 48.9 °F 74% 29.49 in 10.0 mi NW 13.8 mph 21.9 mph N/A   Overcast
4:53 AM 55.0 °F 46.9 °F 74% 29.49 in 10.0 mi WNW 15.0 mph 25.3 mph N/A   Overcast
5:53 AM 54.0 °F 45.0 °F 72% 29.49 in 10.0 mi WNW 15.0 mph - N/A   Overcast
6:53 AM 54.0 °F 44.1 °F 69% 29.49 in 10.0 mi NW 17.3 mph 24.2 mph N/A   Overcast
7:53 AM 54.0 °F 44.1 °F 69% 29.49 in 10.0 mi NW 16.1 mph 24.2 mph N/A   Overcast
8:53 AM 54.0 °F 44.1 °F 69% 29.51 in 10.0 mi WNW 12.7 mph - N/A   Overcast
9:53 AM 55.0 °F 43.0 °F 64% 29.50 in 10.0 mi WNW 15.0 mph 25.3 mph N/A   Overcast
10:53 AM 54.0 °F 43.0 °F 66% 29.49 in 10.0 mi WNW 17.3 mph - N/A   Overcast
11:53 AM 55.0 °F 43.0 °F 64% 29.49 in 10.0 mi WNW 16.1 mph 29.9 mph N/A   Overcast
12:43 PM 55.4 °F 42.8 °F 63% 29.46 in 10.0 mi West 20.7 mph 26.5 mph N/A   Overcast
12:53 PM 57.0 °F 43.0 °F 59% 29.46 in 10.0 mi WNW 17.3 mph 27.6 mph N/A   Overcast
1:53 PM 55.9 °F 41.0 °F 57% 29.45 in 10.0 mi West 16.1 mph 28.8 mph N/A   Overcast
2:53 PM 55.0 °F 39.9 °F 57% 29.44 in 10.0 mi West 25.3 mph 34.5 mph N/A   Overcast
3:53 PM 55.0 °F 39.0 °F 55% 29.42 in 10.0 mi West 23.0 mph 29.9 mph N/A   Overcast
4:53 PM 54.0 °F 37.9 °F 55% 29.41 in 10.0 mi WNW 19.6 mph 33.4 mph N/A   Overcast
5:53 PM 53.1 °F 37.0 °F 55% 29.41 in 10.0 mi WNW 23.0 mph 36.8 mph N/A   Overcast
6:53 PM 52.0 °F 37.0 °F 57% 29.42 in 10.0 mi WNW 18.4 mph - N/A   Overcast
7:53 PM 52.0 °F 37.0 °F 57% 29.43 in 10.0 mi West 19.6 mph 26.5 mph N/A   Overcast
8:53 PM 51.1 °F 36.0 °F 56% 29.44 in 10.0 mi West 16.1 mph 31.1 mph N/A   Overcast
9:53 PM 51.1 °F 37.0 °F 59% 29.44 in 10.0 mi West 20.7 mph 25.3 mph N/A   Overcast
10:53 PM 50.0 °F 36.0 °F 59% 29.44 in 10.0 mi West 16.1 mph 24.2 mph N/A   Mostly Cloudy
11:53 PM 50.0 °F 35.1 °F 57% 29.44 in 10.0 mi WSW 17.3 mph 24.2 mph N/A   Overcast